Jefferson, OH

9:33 AM EST on February 27, 2017 (GMT -0500)
Ashtabula County

Weather History for KHZY - September, 2013

Change the Weather History Date:

Thursday, September 19, 2013

  Actual Average (KGKJ) Record (KGKJ)
Temperature  
Mean Temperature 64 °F -  
Max Temperature 73 °F 71 °F 89 °F (1955)
Min Temperature 54 °F 49 °F 30 °F (1959)
Degree Days  
Heating Degree Days 2    
Growing Degree Days 14 (Base 50)    
Moisture  
Dew Point 58 °F    
Average Humidity 83    
Maximum Humidity 94    
Minimum Humidity 66    
Precipitation  
Precipitation 0.00 in - - ()
Sea Level Pressure  
Sea Level Pressure 30.09 in    
Wind  
Wind Speed 6 mph (South)    
Max Wind Speed 12 mph    
Max Gust Speed -    
Visibility 6 miles    
Events      
Averages and records for this station are not official NWS values.
T = Trace of Precipitation, MM = Missing Value Source: NWS Daily Summary

Daily Weather History Graph

Daily Weather History Graph

Search for Another Location

Airport or City:

Trip Planner

Search our weather history database for the weather conditions in past years. The results will help you decide how hot, cold, wet, or windy it might be!

Date:

Astronomy

Sep. 19, 2013 Rise Set
Actual Time 7:07 AM EDT 7:24 PM EDT
Civil Twilight 6:39 AM EDT 7:52 PM EDT
Nautical Twilight 6:06 AM EDT 8:25 PM EDT
Astronomical Twilight 5:33 AM EDT 8:58 PM EDT
Moon 7:21 PM EDT (9/19) 7:15 AM EDT (9/19)
Length of Visible Light 13h 13m
Length of Day
12h 17m
Full, 100% of the Moon is Illuminated
Sep 19
Full
Sep 26
Last Quarter
Oct 4
New
Oct 11
First Quarter
Oct 18
Full

Hourly Weather History & Observations

Time (EDT) Temp. Dew Point Humidity Pressure Visibility Wind Dir Wind Speed Gust Speed Precip Events Conditions
12:53 AM 54.0 °F 50.0 °F 86% 30.12 in 10.0 mi SSE 3.5 mph - N/A   Clear
1:53 AM 55.0 °F 50.0 °F 83% 30.12 in 10.0 mi South 4.6 mph - N/A   Clear
2:53 AM 55.0 °F 51.1 °F 86% 30.12 in 10.0 mi SE 4.6 mph - N/A   Clear
3:26 AM 55.4 °F 51.8 °F 88% 30.12 in 8.0 mi South 5.8 mph - N/A   Scattered Clouds
3:35 AM 55.4 °F 53.6 °F 94% 30.12 in 8.0 mi SSE 5.8 mph - N/A   Mostly Cloudy
3:53 AM 57.0 °F 54.0 °F 89% 30.11 in 6.0 mi South 4.6 mph - N/A   Overcast
4:02 AM 57.2 °F 55.4 °F 94% 30.12 in 5.0 mi South 5.8 mph - N/A   Overcast
4:53 AM 59.0 °F 55.9 °F 90% 30.11 in 4.0 mi SSW 6.9 mph - N/A   Overcast
5:53 AM 60.1 °F 57.0 °F 90% 30.10 in 5.0 mi South 6.9 mph - N/A   Overcast
6:19 AM 60.8 °F 57.2 °F 88% 30.10 in 4.0 mi South 5.8 mph - N/A   Overcast
6:53 AM 60.1 °F 57.0 °F 90% 30.10 in 4.0 mi South 4.6 mph - N/A   Overcast
7:05 AM 60.8 °F 57.2 °F 88% 30.11 in 4.0 mi South 6.9 mph - N/A   Overcast
7:53 AM 61.0 °F 57.9 °F 90% 30.12 in 4.0 mi South 6.9 mph - N/A   Overcast
8:53 AM 62.1 °F 59.0 °F 90% 30.12 in 3.0 mi South 5.8 mph - N/A   Overcast
9:39 AM 62.6 °F 59.0 °F 88% 30.14 in 2.5 mi South 5.8 mph - N/A   Overcast
9:53 AM 63.0 °F 59.0 °F 87% 30.13 in 1.8 mi South 5.8 mph - N/A   Overcast
10:05 AM 62.6 °F 60.8 °F 94% 30.14 in 2.0 mi South 6.9 mph - N/A   Overcast
10:40 AM 64.4 °F 60.8 °F 88% 30.14 in 3.0 mi South 4.6 mph - N/A   Overcast
10:53 AM 64.0 °F 61.0 °F 90% 30.13 in 2.5 mi South 6.9 mph - N/A   Overcast
11:04 AM 64.4 °F 60.8 °F 88% 30.13 in 3.0 mi SSE 5.8 mph - N/A   Overcast
11:53 AM 66.9 °F 61.0 °F 81% 30.11 in 6.0 mi SSE 9.2 mph - N/A   Haze
12:13 PM 68.0 °F 60.8 °F 78% 30.11 in 7.0 mi SSE 11.5 mph - N/A   Overcast
12:53 PM 68.0 °F 60.1 °F 76% 30.11 in 8.0 mi South 10.4 mph - N/A   Overcast
1:53 PM 72.0 °F 61.0 °F 68% 30.08 in 10.0 mi SSW 10.4 mph - N/A   Mostly Cloudy
2:53 PM 71.1 °F 60.1 °F 68% 30.07 in 8.0 mi South 10.4 mph - N/A   Mostly Cloudy
3:14 PM 71.6 °F 60.8 °F 69% 30.07 in 8.0 mi South 10.4 mph - N/A   Partly Cloudy
3:53 PM 73.0 °F 61.0 °F 66% 30.05 in 8.0 mi South 8.1 mph - N/A   Clear
4:53 PM 72.0 °F 60.1 °F 66% 30.05 in 8.0 mi SSW 10.4 mph - N/A   Partly Cloudy
5:53 PM 71.1 °F 60.1 °F 68% 30.05 in 8.0 mi South 5.8 mph - N/A   Clear
6:53 PM 69.1 °F 61.0 °F 75% 30.05 in 6.0 mi SSE 4.6 mph - N/A   Haze
7:53 PM 66.9 °F 60.1 °F 79% 30.03 in 7.0 mi SE 6.9 mph - N/A   Clear
8:53 PM 64.9 °F 59.0 °F 81% 30.03 in 6.0 mi SSE 6.9 mph - N/A   Haze
9:53 PM 64.0 °F 59.0 °F 84% 30.01 in 5.0 mi SSE 5.8 mph - N/A   Haze
10:53 PM 63.0 °F 59.0 °F 87% 30.02 in 5.0 mi SSE 5.8 mph - N/A   Clear
11:53 PM 62.1 °F 57.9 °F 86% 30.04 in 3.0 mi SSW 3.5 mph - N/A   Clear